Regional Weather Roundup
Issued by NWS

Home | Current Version | Previous Version | Graphics & Text | Print | Product List | Glossary On
Versions: 1 2 3 4 5 6 7 8 9 10 11 12 13 14 15 16 17 18 19 20 21 22 23 24 25 26 27 28 29 30 31 32 33 34 35 36 37 38 39 40 41 42 43 44 45 46 47 48 49 50
000
ASUS43 KMKX 291811
RWRWI

WISCONSIN REGIONAL WEATHER ROUNDUP
NATIONAL WEATHER SERVICE MILWAUKEE/SULLIVAN WI
100 PM CDT FRI JUL 29 2016

NOTE: "FAIR" INDICATES FEW OR NO CLOUDS BELOW 12,000 FEET WITH NO
SIGNIFICANT WEATHER AND/OR OBSTRUCTIONS TO VISIBILITY.

WIZ001-002-006>008-014>016-023>028-291900-
NORTHWEST WISCONSIN

CITY           SKY/WX    TMP DP  RH WIND       PRES   REMARKS
SUPERIOR ARPT  SUNNY     71  55  57 NE8       30.11S
6HR MIN TEMP:  52; 6HR MAX TEMP:  71;

ASHLAND        SUNNY     72  55  55 NE13      30.10F
6HR MIN TEMP:  51; 6HR MAX TEMP:  72;

HAYWARD        PTSUNNY   71  53  52 E6        30.10S
6HR MIN TEMP:  50; 6HR MAX TEMP:  73;

SIREN          NOT AVBL
CUMBERLAND     SUNNY     70  50  49 CALM      30.09F
RICE LAKE      SUNNY     72  52  49 N5        30.09F
6HR MIN TEMP:  56; 6HR MAX TEMP:  72;

CHETEK         SUNNY     72  54  52 CALM      30.08S
6HR MIN TEMP:  59; 6HR MAX TEMP:  73;

LADYSMITH      SUNNY     74  54  49 E5        30.09S
6HR MIN TEMP:  55; 6HR MAX TEMP:  74;

EAU CLAIRE     SUNNY     75  54  47 CALM      30.05S
6HR MIN TEMP:  61; 6HR MAX TEMP:  75;

MENOMONIE      SUNNY     77  48  36 N6        30.07S
6HR MIN TEMP:  61; 6HR MAX TEMP:  77;

NEW RICHMOND   SUNNY     73  47  40 NE6       30.09S
6HR MIN TEMP:  58; 6HR MAX TEMP:  73;

OSCEOLA        SUNNY     73  53  49 N5        30.11F
6HR MIN TEMP:  56; 6HR MAX TEMP:  73;

$$

WIZ003>005-009-010-017-018-291900-
NORTH CENTRAL WISCONSIN

CITY           SKY/WX    TMP DP  RH WIND       PRES   REMARKS
MANITOWISH WTR SUNNY     72  54  53 SE5       30.10S
6HR MIN TEMP:  54; 6HR MAX TEMP:  73;

ARBOR VITAE    MOSUNNY   72  57  59 NE3       30.10S
6HR MIN TEMP:  57; 6HR MAX TEMP:  73;

WOODRUFF       MOSUNNY   72  57  59 NE3       30.10S
6HR MIN TEMP:  57; 6HR MAX TEMP:  73;

RHINELANDER    MOSUNNY   73  55  53 VRB6      30.10R
6HR MIN TEMP:  53; 6HR MAX TEMP:  74;

EAGLE RIVER    MOSUNNY   72  52  49 CALM      30.10S
6HR MIN TEMP:  51; 6HR MAX TEMP:  73;

LAND O LAKES   SUNNY     74  52  46 CALM      30.11S
6HR MIN TEMP:  53; 6HR MAX TEMP:  74; 6HR PCP:  0.06;

PHILLIPS       PTSUNNY   71  55  56 NE5       30.08F
6HR MIN TEMP:  52; 6HR MAX TEMP:  73;

TOMAHAWK       SUNNY     72  56  57 CALM      30.09S
6HR MIN TEMP:  51; 6HR MAX TEMP:  72;

MEDFORD        MOSUNNY   72  59  63 E8        30.07S
6HR MIN TEMP:  55; 6HR MAX TEMP:  72;

MERRILL        CLOUDY    74  60  61 E6        30.07S
6HR MIN TEMP:  54; 6HR MAX TEMP:  74;

$$

WIZ029-030-035-036-043>047-291900-
CENTRAL WISCONSIN

CITY           SKY/WX    TMP DP  RH WIND       PRES   REMARKS
WAUSAU         CLOUDY    73  59  61 E10       30.05S
6HR MIN TEMP:  59; 6HR MAX TEMP:  76;

MOSINEE        PTSUNNY   72  63  73 E10G16    30.07S
MARSHFIELD     CLOUDY    75  61  61 E9        30.04F
6HR MIN TEMP:  61; 6HR MAX TEMP:  76;

STEVENS POINT  CLOUDY    69  61  76 E8        30.06S
6HR MIN TEMP:  56; 6HR MAX TEMP:  69;

WAUPACA        CLOUDY    74  64  73 NE8       30.04F
WAUTOMA        CLOUDY    67  63  87 NE8       30.04F
6HR MIN TEMP:  60; 6HR MAX TEMP:  67;

WISC RAPIDS    CLOUDY    71  60  68 E10       30.06S
6HR MIN TEMP:  60; 6HR MAX TEMP:  72;

CAMP DOUGLAS   CLOUDY    68  64  88 NE6       30.03F
$$

WIZ011>013-019>022-031-037>040-048>050-291900-
NORTHEAST WISCONSIN

CITY           SKY/WX    TMP DP  RH WIND       PRES   REMARKS
ANTIGO         CLOUDY    71  59  66 SE3       30.08S
6HR MIN TEMP:  57; 6HR MAX TEMP:  73;

SHAWANO        CLOUDY    74  63  68 E8        30.06F
OCONTO         CLOUDY    73  62  69 E5        30.05S
6HR MIN TEMP:  59; 6HR MAX TEMP:  73;

STURGEON BAY   MOSUNNY   76  60  57 NE9       30.06S
6HR MIN TEMP:  65; 6HR MAX TEMP:  76;

GREEN BAY      CLOUDY    72  63  73 E8        30.04F
6HR MIN TEMP:  61; 6HR MAX TEMP:  72;

MANITOWOC      PTSUNNY   73  63  70 NE8       30.03F
6HR MIN TEMP:  66; 6HR MAX TEMP:  73;

APPLETON       CLOUDY    70  61  73 NE9       30.03S
CLINTONVILLE   CLOUDY    72  61  68 E9        30.05S
OSHKOSH        LGT RAIN  70  64  81 E8        30.02F
6HR MIN TEMP:  65; 6HR MAX TEMP:  70; 6HR PCP: TRACE;

$$

WIZ032>034-041-042-053>061-291900-
SOUTHWEST WISCONSIN

CITY           SKY/WX    TMP DP  RH WIND       PRES   REMARKS
LA CROSSE      CLOUDY    75  63  66 VRB3      30.02S
6HR MIN TEMP:  65; 6HR MAX TEMP:  75;

SPARTA         CLOUDY    71  64  76 E5        30.04S
6HR MIN TEMP:  62; 6HR MAX TEMP:  72;

VIROQUA        CLOUDY    68  64  86 NE6       30.04S
6HR MIN TEMP:  61; 6HR MAX TEMP:  69;

BOSCOBEL       CLOUDY    69  63  81 E3        30.01S
6HR MIN TEMP:  66; 6HR MAX TEMP:  69;

PRAIRIE DU CHI CLOUDY    65  61  86 N6        30.01S
6HR MIN TEMP:  65; 6HR MAX TEMP:  66; 6HR PCP:  0.20;

PLATTEVILLE    CLOUDY    70  68  92 N7        29.99S
6HR MIN TEMP:  66; 6HR MAX TEMP:  70;

$$

WIZ056-057-062-063-064-067-068-291900-
SOUTH CENTRAL WISCONSIN

CITY           SKY/WX    TMP DP  RH WIND       PRES   REMARKS
REEDSBURG      CLOUDY    67  65  92 NE8       30.02S
6HR MIN TEMP:  60; 6HR MAX TEMP:  67; 6HR PCP:  0.02;

BARABOO/DELLS  CLOUDY    67  63  86 NE5       30.02S
6HR MIN TEMP:  59; 6HR MAX TEMP:  68; 6HR PCP:  0.01;

LONE ROCK      TSTM      65  63  93 N6        30.01S FOG
6HR MIN TEMP:  64; 6HR MAX TEMP:  67; 6HR PCP:  0.30;

MINERAL POINT  CLOUDY    70  66  88 N8        30.00S
MADISON        CLOUDY    71  66  84 NE10      29.99S
6HR MIN TEMP:  64; 6HR MAX TEMP:  71; 6HR PCP:  0.06;

MIDDLETON      CLOUDY    70  67  92 NE7       30.00S
6HR MIN TEMP:  65; 6HR MAX TEMP:  71; 6HR PCP:  0.05;

WATERTOWN      CLOUDY    70  69  95 E9        29.99F
6HR MIN TEMP:  65; 6HR MAX TEMP:  72;

MONROE         CLOUDY    70  66  88 N7        29.97F
JANESVILLE     CLOUDY    75  66  73 NE8       29.95F
$$

WIZ051-052-058>065-066-070>072-291900-
SOUTHEAST WISCONSIN

CITY           SKY/WX    TMP DP  RH WIND       PRES   REMARKS
MILWAUKEE      PTSUNNY   73  65  75 NE10      29.98F
6HR MIN TEMP:  71; 6HR MAX TEMP:  75;

WAUKESHA       CLOUDY    70  63  78 NE13      30.00F
MILWAUKEE/TIMM CLOUDY    66  64  94 NE8       30.01S
RACINE         PTSUNNY   74  65  73 NE10      29.99S
6HR MIN TEMP:  72; 6HR MAX TEMP:  74;

BURLINGTON     CLOUDY    73  66  76 E9        29.97F
6HR MIN TEMP:  68; 6HR MAX TEMP:  73;

KENOSHA        CLOUDY    73  66  78 E13       29.97F
6HR MIN TEMP:  73; 6HR MAX TEMP:  75;

FOND DU LAC    CLOUDY    71  65  81 NE9       30.03S
6HR MIN TEMP:  65; 6HR MAX TEMP:  71; 6HR PCP:  0.24;

SHEBOYGAN      CLOUDY    71  63  75 NE12      30.03S
6HR MIN TEMP:  66; 6HR MAX TEMP:  72;

WEST BEND      CLOUDY    70  63  78 NE13      30.01F
JUNEAU         RAIN      67  64  93 NE9       30.02S
6HR MIN TEMP:  62; 6HR MAX TEMP:  72; 6HR PCP:  0.43;

$$

LSZ147-162-291900-
LAKE SUPERIOR

STATION/POSITION TIME  TEMP    WIND        PRES    WAVE
                       AIR SEA DIR/SP/G            HT/PER
                 (UTC) (F)     (DEG/KT/KT) (MB)    (FT/S)
W MID LAKE BUOY  1750   62 61   30/  8/  8 1019.0F   0
DEVILS ISLAND    1800   64      70/  7/  8 1019.6F
PORT WING        1700   61      10/  7/  8 1019.6
SAXON HARBOR     1640   66      10/  5/  8 1019.3S
$$

LMZ867-665-643>646-291900-
LAKE MICHIGAN

STATION/POSITION TIME  TEMP    WIND        PRES    WAVE
                       AIR SEA DIR/SP/G            HT/PER
                 (UTC) (F)     (DEG/KT/KT) (MB)    (FT/S)
CHAMBERS ISLAND  1700   71      30/ 11/ 13 1017.6S
S GREEN BAY BUOY 1730   70 71   40/  8/  8 1017.2
N MID LAKE BUOY  1750   68 70C1F1C2F2C3F3C4F4C5F5C6F6C7F7C8M1C9M2Ca!



USA.gov is the U.S. government's official web portal to all federal, state and local government web resources and services.